Cold Bay, AK

7:49 AM AKDT on October 17, 2017 (GMT -0800)
Cold Bay

Weather History for PACD - November, 2012

Change the Weather History Date:

Sunday, November 18, 2012

  Actual Average Record
Temperature  
Mean Temperature 25 °F 34 °F  
Max Temperature 26 °F 39 °F 49 °F (1965)
Min Temperature 23 °F 30 °F 13 °F (1975)
Degree Days  
Heating Degree Days 40 31  
Month to date heating degree days 556 534  
Since 1 July heating degree days 2822 2641  
Cooling Degree Days 0 0  
Month to date cooling degree days 0 0  
Year to date cooling degree days 0 0  
Moisture  
Dew Point 18 °F    
Average Humidity 76    
Maximum Humidity 86    
Minimum Humidity 69    
Precipitation  
Precipitation 0.01 in 0.17 in 1.04 in (1978)
Month to date precipitation 3.30 2.89  
Year to date precipitation 39.18 35.12  
Snow  
Snow 0.20 in 0.40 in 3.30 in (1994)
Month to date snowfall 2.0 5.3  
Since 1 July snowfall 3.0 7.7  
Since 1 September snowfall 3.0 7.7  
Snow Depth T in    
Sea Level Pressure  
Sea Level Pressure 29.60 in    
Wind  
Wind Speed 33 mph (NNW)    
Max Wind Speed 44 mph    
Max Gust Speed 53 mph    
Visibility 3 miles    
Events Snow    
T = Trace of Precipitation, MM = Missing Value Source: NWS Daily Summary

Daily Weather History Graph

Daily Weather History Graph

Search for Another Location

Airport or City:

Trip Planner

Search our weather history database for the weather conditions in past years. The results will help you decide how hot, cold, wet, or windy it might be!

Date:

Astronomy

Nov. 18, 2012 Rise Set
Actual Time 9:31 AM AKST 5:40 PM AKST
Civil Twilight 8:49 AM AKST 6:22 PM AKST
Nautical Twilight 8:04 AM AKST 7:07 PM AKST
Astronomical Twilight 7:20 AM AKST 7:50 PM AKST
Moon 1:52 PM AKST (11/18) 11:32 PM AKST (11/18)
Length of Visible Light 9h 33m
Length of Day
8h 09m
Waxing Crescent, 31% of the Moon is Illuminated
Nov 18
Waxing Crescent
Nov 20
First Quarter
Nov 28
Full
Dec 6
Last Quarter
Dec 12
New

Hourly Weather History & Observations

Time (AKST) Temp. Windchill Dew Point Humidity Pressure Visibility Wind Dir Wind Speed Gust Speed Precip Events Conditions
12:53 AM 26.1 °F 11.6 °F 18.0 °F 71% 29.46 in 10.0 mi NW 21.9 mph 29.9 mph N/A   Overcast
1:53 AM 25.0 °F 8.6 °F 18.0 °F 75% 29.47 in 9.0 mi NW 27.6 mph 33.4 mph 0.00 in   Overcast
3:53 AM 24.1 °F 7.7 °F 17.1 °F 75% 29.48 in 9.0 mi NNW 26.5 mph 35.7 mph 0.00 in   Overcast
4:53 AM 24.1 °F 6.1 °F 17.1 °F 75% 29.49 in 8.0 mi NNW 33.4 mph 41.4 mph 0.00 in Snow Light Snow
5:53 AM 23.0 °F 6.3 °F 15.1 °F 72% 29.49 in 9.0 mi NW 26.5 mph 40.3 mph 0.00 in Snow Light Snow
6:53 AM 23.0 °F 5.4 °F 16.0 °F 74% 29.51 in 5.0 mi NW 29.9 mph 40.3 mph 0.00 in Snow Light Snow
7:53 AM 23.0 °F 4.4 °F 16.0 °F 74% 29.52 in 7.0 mi NNW 34.5 mph 42.6 mph 0.00 in Snow Light Snow
8:43 AM 23.0 °F 4.9 °F 15.8 °F 74% 29.53 in 1.8 mi NNW 32.2 mph 44.9 mph 0.00 in Snow Light Snow
8:51 AM 23.0 °F 5.7 °F 15.8 °F 74% 29.53 in 3.0 mi NNW 28.8 mph 40.3 mph 0.00 in Snow Light Snow
8:53 AM 23.0 °F 4.9 °F 17.1 °F 78% 29.54 in 3.0 mi NNW 32.2 mph 40.3 mph 0.00 in Snow Light Snow
9:53 AM 23.0 °F 4.9 °F 17.1 °F 78% 29.56 in 4.0 mi NNW 32.2 mph 43.7 mph 0.00 in Snow Light Snow
10:11 AM 23.0 °F 5.4 °F 17.6 °F 80% 29.56 in 2.5 mi NNW 29.9 mph 40.3 mph 0.00 in Snow Light Snow
10:17 AM 24.8 °F 6.8 °F 17.6 °F 74% 29.56 in 3.0 mi NNW 34.5 mph 42.6 mph 0.00 in Snow Light Snow
10:21 AM 24.8 °F 6.8 °F 17.6 °F 74% 29.57 in 2.5 mi NNW 34.5 mph 42.6 mph 0.00 in Snow Light Snow
10:35 AM 24.8 °F 7.1 °F 17.6 °F 74% 29.57 in 3.0 mi NNW 33.4 mph 42.6 mph 0.00 in Snow Light Snow
10:42 AM 24.8 °F 6.8 °F 17.6 °F 74% 29.57 in 3.0 mi NNW 34.5 mph 44.9 mph 0.00 in Snow Light Snow
10:53 AM 24.1 °F 5.4 °F 17.1 °F 75% 29.58 in 2.0 mi NNW 36.8 mph 42.6 mph 0.00 in Snow Light Snow
11:12 AM 24.8 °F 8.1 °F 15.8 °F 69% 29.58 in 3.0 mi NNW 28.8 mph 44.9 mph 0.00 in Snow Light Snow
11:23 AM 24.8 °F 7.3 °F 17.6 °F 74% 29.58 in 2.0 mi NNW 32.2 mph 43.7 mph 0.00 in Snow Light Snow
11:53 AM 24.1 °F 5.9 °F 17.1 °F 75% 29.59 in 4.0 mi NNW 34.5 mph 44.9 mph 0.00 in Snow Light Snow
11:58 AM 24.8 °F 6.6 °F 17.6 °F 74% 29.58 in 1.8 mi NNW 35.7 mph 43.7 mph 0.00 in Snow Light Snow
12:19 PM 24.8 °F 7.1 °F 17.6 °F 74% 29.59 in 2.0 mi NW 33.4 mph 43.7 mph 0.00 in Snow Light Snow
12:47 PM 24.8 °F 6.6 °F 17.6 °F 74% 29.58 in 5.0 mi NW 35.7 mph 46.0 mph 0.00 in Snow Light Snow
12:48 PM 25.0 °F 6.6 °F 17.1 °F 72% 29.59 in 5.0 mi NW 36.8 mph 46.0 mph 0.00 in Snow Light Snow
12:54 PM 24.8 °F 6.4 °F 17.6 °F 74% 29.59 in 2.0 mi NNW 36.8 mph 46.0 mph 0.00 in Snow Light Snow
12:56 PM 24.8 °F 5.7 °F 17.6 °F 74% 29.59 in 1.5 mi NNW 40.3 mph 46.0 mph 0.00 in Snow Light Snow
1:03 PM 24.8 °F 7.1 °F 17.6 °F 74% 29.59 in 2.5 mi NW 33.4 mph 48.3 mph 0.00 in Snow Light Snow
1:06 PM 24.8 °F 6.2 °F 17.6 °F 74% 29.60 in 2.5 mi NNW 38.0 mph 48.3 mph 0.00 in Snow Light Snow
1:13 PM 24.8 °F 6.4 °F 17.6 °F 74% 29.59 in 0.8 mi NNW 36.8 mph 44.9 mph 0.00 in Snow Light Snow
1:28 PM 24.8 °F 7.6 °F 17.6 °F 74% 29.58 in 2.0 mi NW 31.1 mph 49.5 mph 0.00 in Snow Light Snow
1:36 PM 24.8 °F 6.6 °F 17.6 °F 74% 29.58 in 3.0 mi NNW 35.7 mph 47.2 mph 0.00 in Snow Light Snow
1:43 PM 24.8 °F 7.1 °F 17.6 °F 74% 29.58 in 2.5 mi NNW 33.4 mph 47.2 mph 0.00 in Snow Light Snow
1:45 PM 24.8 °F 6.4 °F 17.6 °F 74% 29.58 in 3.0 mi NNW 36.8 mph 47.2 mph 0.00 in Snow Light Snow
1:53 PM 25.0 °F 6.9 °F 17.1 °F 72% 29.59 in 2.0 mi NNW 35.7 mph 48.3 mph 0.00 in Snow Light Snow
1:57 PM 24.8 °F 6.4 °F 17.6 °F 74% 29.58 in 3.0 mi NW 36.8 mph 48.3 mph 0.00 in Snow Light Snow
2:00 PM 24.8 °F 6.8 °F 17.6 °F 74% 29.59 in 1.8 mi NNW 34.5 mph 47.2 mph 0.00 in Snow Light Snow
2:10 PM 24.8 °F 6.2 °F 17.6 °F 74% 29.59 in 2.5 mi NNW 38.0 mph 46.0 mph 0.00 in Snow Light Snow
2:15 PM 24.8 °F 6.4 °F 17.6 °F 74% 29.59 in 1.8 mi NNW 36.8 mph 46.0 mph 0.00 in Snow Light Snow
2:37 PM 24.8 °F 7.3 °F 17.6 °F 74% 29.58 in 3.0 mi NNW 32.2 mph 46.0 mph 0.00 in Snow Light Snow
2:53 PM 24.1 °F 6.1 °F 18.0 °F 77% 29.58 in 1.8 mi NNW 33.4 mph 47.2 mph 0.00 in Snow Light Snow
2:59 PM 24.8 °F 6.8 °F 17.6 °F 74% 29.58 in 2.0 mi NW 34.5 mph 48.3 mph 0.00 in Snow Light Snow
3:18 PM 24.8 °F 6.8 °F 17.6 °F 74% 29.58 in 1.2 mi NNW 34.5 mph 46.0 mph 0.00 in Snow Light Snow
3:43 PM 24.8 °F 7.1 °F 17.6 °F 74% 29.58 in 0.5 mi NNW 33.4 mph 46.0 mph 0.00 in Snow Snow
3:53 PM 24.1 °F 6.1 °F 19.0 °F 81% 29.58 in 1.0 mi NNW 33.4 mph 44.9 mph 0.00 in Snow Light Snow
4:08 PM 24.8 °F 6.4 °F 17.6 °F 74% 29.58 in 3.0 mi NNW 36.8 mph 48.3 mph 0.00 in Snow Light Snow
4:16 PM 24.8 °F 7.6 °F 17.6 °F 74% 29.57 in 2.0 mi NNW 31.1 mph 49.5 mph 0.00 in Snow Light Snow
4:24 PM 24.8 °F 6.0 °F 17.6 °F 74% 29.58 in 1.0 mi NNW 39.1 mph 49.5 mph 0.00 in Snow Light Snow
4:53 PM 24.1 °F 5.9 °F 18.0 °F 77% 29.59 in 0.8 mi NNW 34.5 mph 46.0 mph 0.00 in Snow Light Snow
5:18 PM 24.8 °F 6.6 °F 19.4 °F 80% 29.60 in 1.0 mi NNW 35.7 mph 47.2 mph 0.00 in Snow Light Snow
5:33 PM 24.8 °F 6.4 °F 17.6 °F 74% 29.59 in 2.5 mi NNW 36.8 mph 49.5 mph 0.00 in Snow Light Snow
5:49 PM 24.8 °F 6.8 °F 19.4 °F 80% 29.60 in 1.0 mi NNW 34.5 mph 46.0 mph 0.00 in Snow Light Snow
5:53 PM 25.0 °F 5.6 °F 19.0 °F 78% 29.60 in 1.5 mi NNW 42.6 mph 52.9 mph 0.00 in Snow Blowing Snow
5:56 PM 24.8 °F 5.3 °F 17.6 °F 74% 29.59 in 3.0 mi NNW 42.6 mph 52.9 mph N/A Snow Blowing Snow
6:02 PM 24.8 °F 5.3 °F 17.6 °F 74% 29.60 in 1.8 mi NNW 42.6 mph 49.5 mph N/A Snow Blowing Snow
6:53 PM 24.1 °F 5.4 °F 19.0 °F 81% 29.64 in 1.0 mi NNW 36.8 mph 50.6 mph 0.00 in Snow Light Snow
7:02 PM 24.8 °F 8.1 °F 17.6 °F 74% 29.64 in 3.0 mi NNW 28.8 mph 50.6 mph 0.00 in Snow Light Snow
7:13 PM 24.8 °F 6.8 °F 17.6 °F 74% 29.64 in 1.8 mi NNW 34.5 mph 49.5 mph 0.00 in Snow Light Snow
7:37 PM 24.8 °F 7.3 °F 19.4 °F 80% 29.65 in 2.0 mi NNW 32.2 mph 43.7 mph 0.00 in   Haze
7:44 PM 23.0 °F 4.6 °F 17.6 °F 80% 29.64 in 1.2 mi NNW 33.4 mph 42.6 mph 0.00 in   Haze
7:53 PM 23.0 °F 4.1 °F 19.0 °F 85% 29.65 in 1.8 mi NNW 35.7 mph 42.6 mph 0.00 in   Overcast
8:14 PM 23.0 °F 4.4 °F 19.4 °F 86% 29.65 in 0.8 mi NNW 34.5 mph 46.0 mph 0.00 in   Overcast
8:26 PM 24.8 °F 6.4 °F 19.4 °F 80% 29.65 in 1.5 mi NNW 36.8 mph 48.3 mph 0.01 in   Overcast
8:29 PM 24.8 °F 6.2 °F 19.4 °F 80% 29.65 in 3.0 mi NNW 38.0 mph 48.3 mph 0.01 in   Haze
8:35 PM 24.8 °F 6.0 °F 19.4 °F 80% 29.66 in 1.5 mi NNW 39.1 mph 46.0 mph 0.01 in   Haze
8:46 PM 24.8 °F 6.2 °F 19.4 °F 80% 29.66 in 3.0 mi North 38.0 mph 44.9 mph 0.01 in   Haze
8:53 PM 24.1 °F 6.6 °F 19.0 °F 81% 29.67 in 2.0 mi NNW 31.1 mph 44.9 mph 0.01 in   Haze
9:01 PM 23.0 °F 4.6 °F 19.4 °F 86% 29.67 in 1.8 mi North 33.4 mph 41.4 mph N/A   Overcast
9:09 PM 24.8 °F 7.3 °F 19.4 °F 80% 29.68 in 2.0 mi NNW 32.2 mph 41.4 mph N/A   Haze
9:36 PM 24.8 °F 6.6 °F 19.4 °F 80% 29.68 in 1.8 mi North 35.7 mph 43.7 mph N/A   Haze
9:40 PM 24.8 °F 7.3 °F 19.4 °F 80% 29.68 in 3.0 mi NNW 32.2 mph 43.7 mph N/A   Haze
9:53 PM 24.1 °F 5.9 °F 18.0 °F 77% 29.70 in 4.0 mi NNW 34.5 mph 43.7 mph N/A   Haze
10:53 PM 24.1 °F 7.1 °F 18.0 °F 77% 29.73 in 5.0 mi NNW 28.8 mph 41.4 mph N/A   Haze
11:49 PM 24.8 °F 7.9 °F 17.6 °F 74% 29.74 in 9.0 mi NNW 29.9 mph 40.3 mph 0.00 in Snow Light Snow
11:53 PM 25.0 °F 8.4 °F 18.0 °F 75% 29.75 in 9.0 mi NNW 28.8 mph 39.1 mph 0.00 in Snow Light Snow